When you browse on this site, cookies collect data to enhance your experience and personalize the content and advertising you see.
Visit our Privacy Policy to learn more. By continuing to use the site, you agree to this use of cookies and data.
  • En España
  • Lista de países
  • Para 7 días
  • Temperatura del agua
  • El tiempo en el mapa
  • Informadores
  • user-avatar
    Iniciar sesión

    Tiempo cada hora Namibe

    Hoy, 30 Mayo, Sábado

    Tiempo Temperatura Precipitaciones Viento Presión Humedad
    00:00 +26°C° 0 mm 3 mps 758 mmHg 41%
    01:00 +26°C° 0 mm 2 mps 758 mmHg 39%
    02:00 +26°C° 0 mm 2 mps 757 mmHg 39%
    03:00 +25°C° 0 mm 2 mps 757 mmHg 38%
    04:00 +25°C° 0 mm 2 mps 757 mmHg 38%
    05:00 +25°C° 0 mm 2 mps 757 mmHg 38%
    06:00 +25°C° 0 mm 2 mps 758 mmHg 39%
    07:00 +26°C° 0 mm 2 mps 758 mmHg 39%
    08:00 +29°C° 0 mm 2 mps 758 mmHg 34%
    09:00 +31°C° 0 mm 2 mps 758 mmHg 28%
    10:00 +35°C° 0 mm 2 mps 758 mmHg 23%
    11:00 +35°C° 0 mm 3 mps 758 mmHg 24%
    12:00 +36°C° 0 mm 4 mps 757 mmHg 24%
    13:00 +36°C° 0 mm 5 mps 757 mmHg 25%
    14:00 +35°C° 0 mm 5 mps 756 mmHg 28%
    15:00 +34°C° 0 mm 5 mps 756 mmHg 31%
    16:00 +34°C° 0 mm 5 mps 756 mmHg 34%
    17:00 +32°C° 0 mm 5 mps 756 mmHg 41%
    18:00 +29°C° 0 mm 5 mps 757 mmHg 49%
    19:00 +27°C° 0 mm 5 mps 757 mmHg 56%
    20:00 +26°C° 0 mm 4 mps 758 mmHg 55%
    21:00 +26°C° 0 mm 3 mps 758 mmHg 54%
    22:00 +26°C° 0 mm 1 mps 758 mmHg 52%
    23:00 +25°C° 0 mm 2 mps 758 mmHg 53%

    Mañana, 31 Mayo, Domingo

    Tiempo Temperatura Precipitaciones Viento Presión Humedad
    00:00 +25°C° 0 mm 2 mps 759 mmHg 53%
    01:00 +25°C° 0 mm 3 mps 759 mmHg 53%
    02:00 +24°C° 0 mm 3 mps 758 mmHg 55%
    03:00 +24°C° 0 mm 3 mps 758 mmHg 57%
    04:00 +22°C° 0 mm 4 mps 758 mmHg 59%
    05:00 +22°C° 0 mm 3 mps 758 mmHg 58%
    06:00 +22°C° 0 mm 3 mps 759 mmHg 57%
    07:00 +22°C° 0 mm 3 mps 759 mmHg 56%
    08:00 +26°C° 0 mm 2 mps 759 mmHg 47%
    09:00 +29°C° 0 mm 2 mps 759 mmHg 38%
    10:00 +32°C° 0 mm 1 mps 759 mmHg 29%
    11:00 +32°C° 0 mm 2 mps 759 mmHg 30%
    12:00 +34°C° 0 mm 3 mps 758 mmHg 31%
    13:00 +35°C° 0 mm 3 mps 758 mmHg 32%
    14:00 +34°C° 0 mm 4 mps 758 mmHg 35%
    15:00 +33°C° 0 mm 4 mps 757 mmHg 38%
    16:00 +32°C° 0 mm 4 mps 757 mmHg 42%
    17:00 +29°C° 0 mm 4 mps 757 mmHg 47%
    18:00 +28°C° 0 mm 3 mps 758 mmHg 53%
    19:00 +26°C° 0 mm 2 mps 758 mmHg 59%
    20:00 +26°C° 0 mm 2 mps 759 mmHg 57%
    21:00 +26°C° 0 mm 2 mps 759 mmHg 54%
    22:00 +26°C° 0 mm 2 mps 759 mmHg 51%
    23:00 +25°C° 0 mm 2 mps 759 mmHg 49%

    Pasado mañana, 1 Junio, Lunes

    Tiempo Temperatura Precipitaciones Viento Presión Humedad
    00:00 +25°C° 0 mm 3 mps 759 mmHg 47%
    01:00 +25°C° 0 mm 3 mps 759 mmHg 45%
    02:00 +25°C° 0 mm 3 mps 759 mmHg 45%
    03:00 +25°C° 0 mm 3 mps 759 mmHg 45%
    04:00 +24°C° 0 mm 3 mps 758 mmHg 44%
    05:00 +25°C° 0 mm 3 mps 759 mmHg 44%
    06:00 +25°C° 0 mm 3 mps 759 mmHg 44%
    07:00 +25°C° 0 mm 2 mps 759 mmHg 44%
    08:00 +28°C° 0 mm 2 mps 759 mmHg 36%
    09:00 +31°C° 0 mm 2 mps 759 mmHg 28%
    10:00 +35°C° 0 mm 2 mps 759 mmHg 21%
    11:00 +36°C° 0 mm 3 mps 758 mmHg 23%
    12:00 +36°C° 0 mm 3 mps 758 mmHg 25%
    13:00 +36°C° 0 mm 4 mps 757 mmHg 28%
    14:00 +35°C° 0 mm 4 mps 757 mmHg 32%
    15:00 +33°C° 0 mm 4 mps 757 mmHg 37%
    16:00 +32°C° 0 mm 5 mps 756 mmHg 42%
    17:00 +29°C° 0 mm 4 mps 757 mmHg 50%
    18:00 +28°C° 0 mm 3 mps 758 mmHg 59%
    19:00 +26°C° 0 mm 2 mps 758 mmHg 68%
    20:00 +26°C° 0 mm 2 mps 759 mmHg 67%
    21:00 +26°C° 0 mm 2 mps 759 mmHg 66%
    22:00 +26°C° 0 mm 2 mps 759 mmHg 65%
    23:00 +26°C° 0 mm 2 mps 759 mmHg 63%

    2 Junio, Martes

    Tiempo Temperatura Precipitaciones Viento Presión Humedad
    00:00 +25°C° 0 mm 2 mps 759 mmHg 60%
    01:00 +25°C° 0 mm 2 mps 759 mmHg 58%
    02:00 +25°C° 0 mm 2 mps 759 mmHg 57%
    03:00 +25°C° 0 mm 2 mps 759 mmHg 57%
    04:00 +24°C° 0 mm 3 mps 759 mmHg 56%
    05:00 +24°C° 0 mm 2 mps 759 mmHg 55%
    06:00 +24°C° 0 mm 2 mps 759 mmHg 54%
    07:00 +24°C° 0 mm 1 mps 759 mmHg 53%
    08:00 +27°C° 0 mm 1 mps 759 mmHg 46%
    09:00 +30°C° 0 mm 1 mps 759 mmHg 38%
    10:00 +32°C° 0 mm 1 mps 759 mmHg 31%
    11:00 +32°C° 0 mm 2 mps 759 mmHg 32%
    12:00 +34°C° 0 mm 3 mps 758 mmHg 33%
    13:00 +34°C° 0 mm 4 mps 757 mmHg 34%
    14:00 +33°C° 0 mm 4 mps 757 mmHg 39%
    15:00 +32°C° 0 mm 5 mps 757 mmHg 44%
    16:00 +29°C° 0 mm 5 mps 757 mmHg 49%
    17:00 +28°C° 0 mm 4 mps 757 mmHg 55%
    18:00 +27°C° 0 mm 2 mps 757 mmHg 62%
    19:00 +26°C° 0 mm 1 mps 758 mmHg 69%
    20:00 +26°C° 0 mm 1 mps 758 mmHg 69%
    21:00 +26°C° 0 mm 2 mps 758 mmHg 69%
    22:00 +25°C° 0 mm 2 mps 759 mmHg 68%
    23:00 +26°C° 0 mm 2 mps 759 mmHg 62%

    3 Junio, Miércoles

    Tiempo Temperatura Precipitaciones Viento Presión Humedad
    00:00 +27°C° 0 mm 1 mps 758 mmHg 56%
    01:00 +28°C° 0 mm 1 mps 758 mmHg 50%
    02:00 +27°C° 0 mm 1 mps 758 mmHg 52%
    03:00 +27°C° 0 mm 2 mps 758 mmHg 54%
    04:00 +27°C° 0 mm 2 mps 758 mmHg 56%
    05:00 +26°C° 0 mm 2 mps 758 mmHg 57%
    06:00 +26°C° 0 mm 2 mps 758 mmHg 58%
    07:00 +26°C° 0 mm 1 mps 758 mmHg 59%
    08:00 +27°C° 0 mm 1 mps 758 mmHg 53%
    09:00 +29°C° 0 mm 1 mps 758 mmHg 47%
    10:00 +30°C° 0 mm 1 mps 758 mmHg 42%
    11:00 +31°C° 0 mm 2 mps 758 mmHg 41%
    12:00 +33°C° 0 mm 3 mps 757 mmHg 40%
    13:00 +34°C° 0 mm 4 mps 756 mmHg 39%
    14:00 +33°C° 0 mm 4 mps 756 mmHg 42%
    15:00 +32°C° 0 mm 4 mps 756 mmHg 44%
    16:00 +30°C° 0 mm 4 mps 756 mmHg 47%
    17:00 +29°C° 0 mm 3 mps 756 mmHg 54%
    18:00 +27°C° 0 mm 2 mps 757 mmHg 61%
    19:00 +26°C° 0 mm 2 mps 757 mmHg 68%
    20:00 +26°C° 0 mm 2 mps 757 mmHg 67%
    21:00 +26°C° 0 mm 2 mps 758 mmHg 67%
    22:00 +26°C° 0 mm 2 mps 758 mmHg 66%
    23:00 +25°C° 0 mm 1 mps 758 mmHg 65%

    4 Junio, Jueves

    Tiempo Temperatura Precipitaciones Viento Presión Humedad
    00:00 +25°C° 0 mm 1 mps 758 mmHg 64%
    01:00 +23°C° 0 mm 0 mps 758 mmHg 63%
    02:00 +25°C° 0 mm 1 mps 758 mmHg 64%
    03:00 +24°C° 0 mm 1 mps 758 mmHg 65%
    04:00 +24°C° 0 mm 2 mps 757 mmHg 66%
    05:00 +24°C° 0 mm 2 mps 758 mmHg 66%
    06:00 +24°C° 0 mm 2 mps 758 mmHg 67%
    07:00 +24°C° 0 mm 2 mps 758 mmHg 67%
    08:00 +26°C° 0 mm 2 mps 758 mmHg 57%
    09:00 +29°C° 0 mm 2 mps 759 mmHg 48%
    10:00 +31°C° 0 mm 1 mps 759 mmHg 38%
    11:00 +32°C° 0 mm 2 mps 758 mmHg 37%
    12:00 +34°C° 0 mm 3 mps 757 mmHg 37%
    13:00 +35°C° 0 mm 3 mps 757 mmHg 36%
    14:00 +34°C° 0 mm 3 mps 757 mmHg 39%
    15:00 +33°C° 0 mm 3 mps 756 mmHg 41%
    16:00 +32°C° 0 mm 4 mps 756 mmHg 43%
    17:00 +29°C° 0 mm 3 mps 757 mmHg 52%
    18:00 +28°C° 0 mm 3 mps 757 mmHg 60%
    19:00 +26°C° 0 mm 2 mps 758 mmHg 69%
    20:00 +26°C° 0 mm 2 mps 758 mmHg 68%
    21:00 +26°C° 0 mm 2 mps 759 mmHg 67%
    22:00 +26°C° 0 mm 2 mps 759 mmHg 67%
    23:00 +26°C° 0 mm 2 mps 759 mmHg 63%
    Mostrar más